sat.trackr.live / text

‹ back to catalog

STARLINK-34402

NORAD 64446 · 2025-130J

PAYLOAD ACTIVE UNKNOWN

§ Identity

Operator
Country
US
Launch date
2025-06-18
Launch site
AFETR
Launch vehicle
Mass (kg)
RCS (m²)

Purposes: comms

External: N2YO · Heavens-Above · Gunter

§ Orbital elements

Epoch: 2026-09-20T23:18:43.566912Z

Period
93.85 min
Inclination
53.1584°
Eccentricity
0.0001673
Mean motion
15.34399515 rev/d
Perigee alt
461.6 km
Apogee alt
463.8 km
Semi-major
6,840.8 km
B*
3.2568e-4
RAAN
259.2041°
Arg perigee
83.5467°
Mean anomaly
276.5727°
Rev number
7,063

§ Raw data

STARLINK-344021 64446U 25130J   26263.97133758  .00010643  00000+0  32568-3 0  99972 64446  53.1584 259.2041 0001673  83.5467 276.5727 15.34399515 70632

JSON: /api/v1/satellites/64446 · /tle

For live sub-satellite position, see the globe view (requires WebGL).

§ Visibility from observer

Set your observer location to see the next 7 days of passes ≥ 10°. The values pass through the URL so the page stays shareable.

No JS? Fill the form by hand. The geolocation button needs JavaScript.